Location: Ash Swamp
(41.5170°N, 74.6157°W)
Time: 06:27:42
(UTC+00:00)

Cosmos 1346 Rocket - Pass Details

Date: 14 July 2020
Orbit: 533 x 546 km, 81.2° (Epoch: 04 August)

Event Time Altitude Azimuth Distance (km) Brightness Sun altitude
Exits shadow 03:48:47 55° 29° (NNE) 645 3.3 -24.5°
Drops below altitude 10° 03:51:57 10° 13° (NNE) 1,795 6.2 -24.7°
Sets 03:54:07 0° 12° (NNE) 2,692 7.3 -24.8°
